www.pogodaiklimat.ru

Погода и климат >> Архив погоды >> Мадагаскар >> Пемба


ПОГОДА в Пембе

  • Прогноз погоды в Пембе
  • Монитор погоды в Пембе

АРХИВ ПОГОДЫ в Пембе

Время (UTC), дата Ветер
(напр.,м/с)
 
Видим.   Явления Облачность Т
(С)
Тd
(С)
f
(%)
Тe
(С)
Тes
(С)
Комфортность P
(гПа)
Po
(гПа)
Тmin
(С)
Tmax
(С)
R
(мм)
R24
(мм)
S
(см)
15 10.06 Ю 6 30 км 8/1 600 м
[Cu hum Ac und]
+26.2 +21.7 76 +34 +34 очень
душно
1018.7 1012.9
18 10.06 Ю 6 25 км 4/1 600 м
[Cu hum Ac und]
+25.5 +22.1 81 +33 +33 очень
душно
1019.2 1013.4 +29.5
21 10.06 ЮЗ 4 25 км 3/1 600 м
[Cu hum Ac trans]
+22.5 +19.3 82 +28 +28 душно 1019.0 1013.1
00 11.06 ЮЗ 5 25 км ясно +21.6 +19.4 87 +27 +27 душно 1018.9 1013.0
03 11.06 ЮЗ 5 25 км 1/1 600 м
[Cu hum Ac trans]
+20.0 +18.9 93 +23 +23 комфорт 1019.5 1013.6
06 11.06 ЮЗ 7 30 км 1/1 600 м
[Cu hum Ac trans]
+25.3 +21.3 79 +32 +33 очень
душно
1021.1 1015.3 +19.9
09 11.06 Ю 9 30 км 3/3 600 м
[Cu med, cong Ac trans]
+28.2 +21.4 67 +36 +37 очень
душно
1019.5 1013.7
15 11.06 Ю 7 25 км 4/3 600 м
[Cu med, cong Ac trans]
+26.0 +21.5 76 +33 +33 очень
душно
1018.7 1012.9
18 11.06 Ю 6 25 км 3/3 600 м
[Cu med, cong Ac trans]
+25.3 +21.1 78 +32 +32 очень
душно
1020.0 1014.2
00 12.06 ЮЗ 5 20 км 1/1 600 м
[Cu hum]
+21.4 +20.9 97 +27 +27 душно 1018.6 1012.7
03 12.06 З 4 20 км 6/1 600 м
[Cu hum Ac und]
+21.4 +20.9 97 +27 +27 душно 1019.3 1013.4
06 12.06 ЮЗ 5 30 км 5/5 600 м
[Cu hum Ac trans]
+23.4 +21.5 89 +32 +33 очень
душно
1021.2 1015.3 +21.1
09 12.06 Ю 9 30 км 4/3 600 м
[Cu hum Ac trans Ci fib]
+28.7 +21.9 67 +37 +38 очень
душно
1019.8 1014.0
12 12.06 Ю 8 30 км 6/3 600 м
[Cu hum Ac trans Ci sp]
+28.2 +22.3 70 +37 +37 очень
душно
1017.7 1011.9
15 12.06 Ю 7 30 км 6/3 600 м
[Cu med, cong Ac trans Ci sp]
+25.8 +23.5 87 +35 +35 очень
душно
1018.6 1012.8
06 13.06 ЮЗ 5 30 км 9/3 600 м
[Cu med, cong Ac trans Cs]
+23.9 +22.2 90 +31 +32 очень
душно
1021.2 1015.3 2
09 13.06 Ю 6 30 км 4/4 600 м
[Cu med, cong Ac trans Ci sp]
+28.8 +21.7 66 +37 +40 очень
душно
1020.2 1014.4
12 13.06 Ю 8 30 км 1/1 600 м
[Cu hum Ac trans]
+28.1 +21.8 69 +36 +38 очень
душно
1018.2 1012.4
15 13.06 Ю 7 25 км 6/3 600 м
[Cu med, cong Ac und]
+25.8 +21.3 76 +33 +33 очень
душно
1019.4 1013.6
18 13.06 Ю 7 25 км 6/3 600 м
[Cu med, cong Ac und]
+25.5 +21.4 78 +32 +32 очень
душно
1020.9 1015.1 +29.0
21 13.06 ЮЗ 3 25 км 8/3 600 м
[Cu med, cong Ac und]
+22.9 +20.8 88 +30 +30 очень
душно
1021.0 1015.1
03 14.06 З 4 25 км 6/1 600 м
[Cu med, cong Ac und]
+20.1 +20.1 100 +24 +24 комфорт 1020.2 1014.3
06 14.06 ЮЗ 5 30 км 6/1 600 м
[Cu hum Ac trans Ci fib]
+23.4 +20.2 82 +31 +32 очень
душно
1021.7 1015.8
09 14.06 Ю 8 30 км 5/3 600 м
[Cu med, cong Ac trans Ci fib]
+27.7 +19.7 62 +34 +35 очень
душно
1020.3 1014.5
12 14.06 Ю 9 30 км 6/3 600 м
[Cu med, cong Ac trans Cs]
+27.7 +19.7 62 +34 +34 очень
душно
1018.3 1012.5
15 14.06 Ю 7 30 км 9/1 600 м
[Cu hum Ac trans Cs]
+25.2 +20.8 77 +32 +32 очень
душно
1018.9 1013.1
18 14.06 Ю 7 25 км 6/1 600 м
[Cu hum Ac trans Cs]
+23.9 +17.3 67 +28 +28 душно 1020.5 1014.6 +28.5
21 14.06 ЮЗ 7 25 км 3/1 600 м
[Cu hum Ac trans]
+21.0 +16.7 76 +24 +24 комфорт 1020.1 1014.2
00 15.06 ЮЗ 3 25 км 1/1 600 м
[Cu hum]
+18.6 +16.1 85 +20 +20 1018.8 1012.9
03 15.06 З 4 25 км 1/1 600 м
[Cu hum]
+17.1 +15.5 90 +17 +17 1019.3 1013.3
06 15.06 ЮЗ 5 30 км 8/1 600 м
[Cu hum Cs]
+20.2 +16.5 79 +23 +25 комфорт 1020.9 1015.0 +16.8
09 15.06 Ю 7 30 км 6/4 600 м
[Cu med, cong Ac trans Ci sp]
+26.7 +18.4 60 +31 +34 душно 1019.6 1013.8
15 15.06 Ю 6 25 км 3/1 600 м
[Cu med, cong Ac trans]
+25.1 +20.9 78 +32 +32 очень
душно
1017.9 1012.1
21 15.06 ЮЗ 4 20 км 1/1 600 м
[Cu hum]
+21.9 +19.4 86 +27 +27 душно 1019.8 1013.9
00 16.06 ЮЗ 4 20 км 1/1 600 м
[Cu hum Ac trans]
+19.8 +18.8 94 +23 +23 комфорт 1018.7 1012.8
06 16.06 ЮЗ 6 30 км 1/1 600 м
[Cu hum]
+22.2 +19.8 86 +28 +30 душно 1021.5 1015.6 +19.0
09 16.06 Ю 7 30 км 3/3 600 м
[Cu med, cong Ac trans]
+27.7 +19.7 62 +34 +36 очень
душно
1020.7 1014.9
12 16.06 Ю 8 30 км 3/1 600 м
[Cu med, cong Ac trans]
+27.7 +19.7 62 +34 +35 очень
душно
1018.6 1012.8
15 16.06 Ю 7 30 км 4/1 600 м
[Cu hum Ac trans]
+25.4 +20.1 72 +31 +31 очень
душно
1019.4 1013.6
18 16.06 Ю 6 25 км 6/1 600 м
[Cu hum Ac und]
+25.1 +21.3 79 +32 +32 очень
душно
1021.3 1015.5 +28.7
21 16.06 Ю 6 25 км 9/4 600 м
[Cu med, cong Ac und]
+23.4 +19.8 80 +30 +30 очень
душно
1022.0 1016.1
03 17.06 ЮЗ 4 30 км 9/3 600 м
[Cu med, cong Ac und]
+20.6 +18.6 88 +25 +25 комфорт 1021.6 1015.7
06 17.06 ЮЗ 6 30 км 1/1 600 м
[Cu hum Ac trans]
+23.2 +19.0 77 +29 +32 душно 1022.8 1016.9 +20.4
09 17.06 Ю 9 30 км 1/1 600 м
[Cu med, cong Ac trans]
+28.3 +19.7 60 +34 +36 очень
душно
1021.2 1015.4

 

Местоположение метеостанции Пемба (Мадагаскар): широта -12.98 долгота 40.53 высота над уровнем моря 50 м.

В архиве по умолчанию представлена погода в Пембе за последнюю неделю. Архивные данные за месяц целиком и за предыдущие месяцы, начиная с января 2011 года, Вы можете получить, выбрав интересующий диапазон дат из раскрывающегося списка и нажав кнопку "Ввод!".


*Определитесь, кто Вы:
робот инопланетянин человек

Внимание! Время в таблицах - всемирное. Для получения местного времени необходимо прибавить поправку, которая равна 3 ч.

Смотрите также архив погоды в соседних городах и на ближайших метеорологических станциях:

Погода в Монтепуезе (Мозамбик) (163 км)
Погода в Лумбо (Мозамбик) (229 км)
Погода в Нампула (Мозамбик) (272 км)
Погода в Мтваре (Танзания) (305 км)
Погода в Маррупе (Мозамбик) (333 км)
Погода в Морони (Коморские Острова) (339 км)
Погода в Ангоче (Мозамбик) (367 км)
Погода в Куаба (Мозамбик) (479 км)
Погода на Острове Жуан-ди-Нова (Реюньон) (504 км)
Погода в Дзаудзи (Коморские Острова) (515 км)

Пояснения к столбцам:

Ветер - указаны скорость ветра в м/с - средняя за 10 мин, порывы в срок и между сроками (в фигурных скобках) и направление, откуда дует ветер: С - северный, СВ - северо-восточный, В - восточный, ЮВ - юго-восточный, Ю - южный, ЮЗ - юго-западный, З - западный, СЗ - северо-западный.
Видимость - горизонтальная дальность видимости в метрах или километрах. При видимости от 1 до 10 км при отсутствии осадков обычно наблюдается дымка, при ухудшении видимости до 1 км и менее - туман. В сухую погоду видимость может ухудшаться дымом, пылью или мглою.
Явления - указаны атмосферные явления, наблюдавшиеся в срок или в последний час перед сроком; фигурными скобками обозначены явления, наблюдавшиеся между сроками (за 1-3 часа до срока); квадратными скобками обозначены град или гололедные отложения с указанием их диаметра в мм.
Облачность - указаны через наклонную черту общая и нижняя облачность в баллах и высота нижней границы облаков в метрах; квадратными скобками обозначены формы облаков: Ci - перистые, Cs - перисто-слоистые, Cc - перисто-кучевые, Ac - высококучевые, As - высокослоистые, Sc - слоисто-кучевые, Ns - слоисто-дождевые, Cu - кучевые, Cb - кучево-дождевые. Подробнее классификацию облаков см. в Атласе облаков (PDF).
T - Температура воздуха - температура, измеренная на высоте 2 м над землей.
Td - Температура точки росы - температура, при понижении до которой содержащийся в воздухе водяной пар достигнет насыщения.
f - Относительная влажность воздуха - влажноcть воздуха, измеренная на высоте 2 м над землей.
Te - Эффективная температура - температура, которую ощущает одетый по сезону человек в тени. Характеристика душности погоды. При расчете учитывается влияние влажности воздуха и скорости ветра на теплоощущения человека.
Tes - Эффективная температура на солнце - температура, которую ощущает человек, с поправкой на солнечный нагрев. Характеристика знойности погоды. Зависит от высоты солнца над горизонтом, облачности и скорости ветра. Ночью, в пасмурную погоду, а также при ветре 12 м/с и более поправка равна нулю.
P - Атмосферное давление - приведенное к уровню моря атмосферное давление.
Po - Атмосферное давление - измеренное на уровне метеостанции атмосферное давление.
Tmin - Минимальная температура - минимум температуры воздуха на высоте 2 м над землей.
Tmax - Максимальная температура - максимум температуры воздуха на высоте 2 м над землей.
R - Количество осадков - Количество выпавших осадков за период времени, мм. При наведении курсора мыши на число - период времени, за который выпало указанное количество осадков.
R24 - Количество осадков - Количество выпавших осадков за 24 часа, мм.
S - Снежный покров - Высота снежного покрова, см. При наведении курсора мыши на число - состояние снежного покрова и степень покрытия местности в баллах.